Terminal Aerodrome Forecast
Issued by NWS Greer, SC

Home | Current Version | Previous Version | Text Only | Print | Product List | Glossary On
Versions: 1 2 3 4 5 6 7 8 9 10 11 12 13 14 15 16 17 18 19 20 21 22 23 24 25 26 27 28 29 30 31 32 33 34 35 36 37 38 39 40 41 42 43 44 45 46 47 48 49 50
000
FTUS42 KGSP 262340
TAFCLT
TAF
KCLT 262340Z 2700/2724 16004KT P6SM SCT035 SCT070
      TEMPO 2700/2702 BKN035
     FM270200 22004KT P6SM SCT040 BKN100
     FM271000 24006KT P6SM BKN050
     FM271600 30012G18KT P6SM SCT040 BKN120=

USA.gov is the U.S. government's official web portal to all federal, state and local government web resources and services.